Weather in Algiers

Algeria     36°46′19″N   3°03′35″E
temp.,
°C
wind,
m/s
gust,
m/s
humid.,
%
clouds,
%
prec.,
mm/h
press.,
hPa
HPBL,
m
5 march, fri
fri501:00+14ene238219 0.0 1017228
04:00+13ene238157 0.0 1016175
07:00+13e238229 0.0 1016232
10:00+15e33681 0.0 1017553
13:00+17ne43581 0.0 1016659
16:00+16ne45626 0.0 1015450
19:00+15ene46728 0.0 1015490
22:00+14ene467596 0.0 1017476
6 march, sat
sat601:00+14ene347598 0.0 1018290
04:00+14ene237698 0.0 1017167
07:00+14ene467984 0.0 1018308
10:00+16e016890 0.0 1020425
13:00+17ene226895 0.8 1019396
16:00+17ne4567100 0.4 1018368
19:00+15ne4582100 1.1 1019409
22:00+14e81090100 10.0 1020323
7 march, sun
sun701:00+15e4777100 10.3 1019374
04:00+14e578190 0.0 1017274
07:00+14ese227768 0.0 101777
10:00+17sse125893 0.0 1018147
13:00+19wnw445496 0.0 1017380
16:00+16w7974100 0.6 1015580
19:00+15wnw1279100 1.9 1015396
22:00+14ssw1281100 0.7 1016234
8 march, mon
mon801:00+14wsw1284100 2.1 1015216
04:00+13se238498 1.6 1013214
07:00+13w358382 1.7 1013275
10:00+14nw578294 3.6 1014656
13:00+14wnw567695 4.8 1015699
16:00+14nw467598 1.6 1014666
19:00+14w467865 2.4 1015729
22:00+13w358013 1.4 1016408
9 march, tue
tue901:00+13wsw468111 2.3 1017361
04:00+13sw357763 1.1 1016254
07:00+12sw237855 1.9 1017203
10:00+14n116669 0.4 1018572
13:00+16ne435775 0.9 1018964
16:00+15ne556048 0.2 1017831
19:00+14ene456925 0.3 1019805
22:00+13ene457233 0.1 1021760